MONITOR-3 (RS58S)

Last updated on Tue Aug 25 2026 00:03:14 GMT+0000 (Coordinated Universal Time)

1 57180U 23091Q 26236.61143927 .00009035 00000+0 32274-3 0 9995 2 57180 97.5033 300.5976 0010450 210.0410 150.0231 15.29026735174743
UTC large
Height (km)
Speed (km/s)
/
Latitude / Longitude
Inclination (degrees)
Orbital Period (minutes)
Azimuth
Elevation
Range (km)
Doppler Factor

Next 0 passes for location: London (51.5072 / 0.1276)

No passes found over London.
MONITOR-3 (RS58S)